Location: ?????????
(48.3669°N, 37.7204°E)
Time: 19:35:11
(UTC+00:00)

Daily predictions for brighter satellites

Satellite Brightness Start Highest point End
(mag) Time Altitude Azimuth Time Altitude Azimuth Time Altitude Azimuth
Cosmos 2278 Rocket 3.3 15:47:51 10° NNW 15:52:38 27° NE 15:57:22 10° ESE
PSLV R/B 4.3 15:51:37 10° NNE 15:55:30 41° E 15:59:20 10° S
YAOGAN 1 2.6 15:51:46 10° SSE 15:56:02 64° ENE 16:00:21 10° N
Okean 1 4.2 15:53:13 10° NNW 15:57:12 57° W 16:01:09 10° S
USA 186 3.5 15:57:17 10° ENE 15:57:35 10° ENE 15:57:54 10° NE
Meteor 1-5 Rocket 4.4 15:53:33 10° SSE 15:58:45 50° E 16:04:08 10° NNE
BREEZE-M DEB (TANK) 4.4 15:56:01 10° SW 15:59:49 59° SE 16:14:14 10° ENE
SJ 16-02 2.5 15:57:21 10° N 16:00:58 24° ENE 16:04:33 10° ESE
IRS-1C Rocket 4.2 15:57:04 10° SSE 16:02:20 85° WSW 16:07:40 10° NNW
SAR-Lupe-4 4.2 16:00:40 10° NNE 16:03:59 34° E 16:07:17 10° SSE
COSMO-SKYMED 1 3.2 16:01:47 10° N 16:06:06 63° WNW 16:10:23 10° SSW
SeaSat 1 3.5 16:02:14 10° NE 16:06:09 23° ESE 16:10:03 10° SSE
FALCON 9 DEB 3.2 16:03:15 10° WNW 16:06:24 57° NNE 16:09:18 12° E
Okean 3 4.2 16:03:01 10° N 16:06:54 33° ENE 16:10:47 10° SE
SL-4 R/B 2.0 16:04:27 10° WNW 16:08:00 60° SSW 16:11:23 10° SE
Gbstr 26 Del rocket 3.5 16:03:47 10° WNW 16:08:09 60° N 16:13:14 11° E
Cosmos 1536 3.9 16:05:46 10° SE 16:08:57 23° E 16:12:08 10° NE
MOS 1 Rocket 4.4 16:04:14 10° N 16:09:17 55° WNW 16:14:31 10° SSW
Cosmos 2242 Rocket 3.5 16:05:23 10° N 16:09:54 80° E 16:14:21 10° SSE
Cosmos 2333 Rocket 2.4 16:06:24 10° S 16:11:52 50° ESE 16:17:24 10° NE
ATLAS 5 CENTAUR R/B 4.2 16:01:19 10° WSW 16:12:25 39° NW 16:16:01 10° NNE
FALCON 9 DEB 2.9 16:11:15 10° WNW 16:14:26 68° NNE 16:17:02 14° ESE
BREEZE-M DEB (TANK) 2.9 16:09:29 10° SW 16:14:34 40° SSE 16:16:39 14° E
Meteor 2-4 Rocket 4.0 16:10:20 10° NNW 16:16:14 82° W 16:22:11 10° S
Resurs 01 Rocket 3.6 16:16:34 10° ENE 16:17:39 11° NE 16:18:48 10° NE
Cosmos 2322 Rocket 3.4 16:12:59 10° SW 16:18:21 44° NW 16:23:45 10° NNE
ARGOS 3.2 16:17:11 10° SSE 16:22:37 86° ENE 16:28:06 10° NNW
Helios 1A Rocket 2.8 16:19:38 10° SSE 16:23:40 73° ENE 16:27:42 10° N
SAR-Lupe-1 4.0 16:20:53 10° NNE 16:24:27 62° ESE 16:28:00 10° S
GP-B 3.0 16:20:07 10° S 16:24:32 73° E 16:28:59 10° N
Lacrosse 4 Rocket 1.5 16:20:38 10° SSW 16:24:59 63° ESE 16:29:26 10° NE
Abrixas rocket 2.2 16:22:36 10° W 16:25:00 45° SSW 16:26:34 18° SE
Cosmos 2219 Rocket 2.2 16:23:09 10° S 16:28:38 59° ESE 16:34:10 10° NE
Cosmos 192 4.3 16:23:50 10° SSW 16:28:42 71° ESE 16:33:37 10° NNE
Cosmos 1869 Rocket 3.6 16:27:10 10° S 16:31:27 59° E 16:35:49 10° NNE
CZ-2C R/B 2.6 16:27:59 10° NNE 16:33:24 63° E 16:38:40 10° S
CZ-4 R/B 2.7 16:29:52 10° S 16:33:34 42° W 16:37:21 10° NNW
ERBS 4.4 16:31:52 10° NW 16:34:16 18° N 16:36:38 10° NE
NOSS 3-2 (A) 3.8 16:30:20 10° S 16:35:26 37° ESE 16:41:12 10° NE
CZ-4B R/B 3.8 16:34:08 10° NNW 16:36:42 24° WNW 16:39:17 10° SW
Cosmos 1238 Rocket 3.2 16:34:19 10° SSE 16:37:59 34° E 16:41:09 10° NNE
ERS-2 2.2 16:36:13 10° NNE 16:39:53 83° WNW 16:43:33 10° SSW
SL-08 RB Rocket 3.7 16:36:22 10° SSE 16:40:55 88° W 16:45:33 10° NNW
COSMOS 2428 2.7 16:37:27 10° SSW 16:43:03 64° ESE 16:48:42 10° NNE
FALCON 9 DEB 2.9 16:39:58 10° WNW 16:43:07 75° SSW 16:44:38 28° SE
Cosmos 1378 3.1 16:40:25 10° N 16:44:07 60° ENE 16:47:46 10° SSE
Cosmos 1689 Rocket 2.7 16:41:23 10° N 16:44:14 55° WNW 16:47:04 10° SSW
USA 305 3.2 16:40:02 10° WNW 16:44:15 56° NNE 16:46:33 25° E
SL-16 R/B 4.3 16:42:17 10° W 16:46:59 26° NW 16:51:43 10° N
CENTAUR R/B 3.1 16:42:20 10° S 16:47:26 32° ESE 16:53:20 10° NE
Cosmos 1733 Rocket 3.8 16:45:06 10° SSE 16:48:53 30° E 16:52:44 10° NNE
SL-8 Rocket 4.0 16:43:07 10° S 16:49:21 90° ENE 16:55:34 10° N
Cosmos 2369 Rocket 4.2 16:49:58 10° N 16:52:24 13° NNE 16:54:24 11° NE
CREW DRAGON DEMO-1 DEB 2.8 16:49:41 10° SW 16:52:25 51° SSE 16:52:45 47° ESE
NOSS 0 Rocket 4.2 16:46:46 10° S 16:52:28 41° ESE 16:58:11 10° NE
FALCON 9 DEB 2.9 16:49:18 10° WNW 16:52:30 76° SSW 16:53:37 37° SE
Cosmos 1066 Rocket 4.2 16:49:20 10° N 16:55:08 84° ENE 17:01:00 10° SSE
Cosmos 1898 Rocket 4.1 16:51:56 10° N 16:56:50 38° ENE 16:58:52 28° ESE
USA 307 3.0 16:53:45 10° WNW 16:58:00 61° NNE 16:59:43 33° E
USA 306 3.0 16:55:02 10° WNW 16:59:19 64° NNE 17:00:59 34° E
ATLAS CENTAUR R/B 3.5 16:57:59 10° W 17:00:49 21° NW 17:03:42 10° NNE
CSL-04 Rocket 4.3 16:58:08 10° S 17:03:33 57° W 17:08:58 10° NNW
Cosmos 2322 4.2 16:58:28 10° SW 17:04:09 65° WNW 17:09:52 10° NNE
Meteor 1-23 Rocket 4.1 16:59:34 10° N 17:05:13 79° ENE 17:10:54 10° SSE
Cosmos 1743 2.9 17:02:29 15° SSE 17:05:29 47° E 17:09:16 10° NNE
Cosmos 2366 rocket 4.1 17:01:13 10° S 17:07:33 83° W 17:13:58 10° N
Cosmos 1666 4.3 17:04:12 10° SW 17:07:39 35° WNW 17:11:09 10° N
USA 308 2.9 17:04:33 10° WNW 17:08:50 68° NNE 17:10:07 42° E
ASTEX 1 3.2 17:06:58 10° N 17:11:52 73° E 17:16:44 10° S
H-2A R/B 4.2 17:07:25 10° SSW 17:12:04 28° W 17:16:44 10° NW
BREEZE-M DEB (TANK) 2.4 17:11:33 10° WNW 17:14:15 86° NNE 17:16:04 37° E
GRACE-FO 1 4.5 17:12:23 12° S 17:15:46 88° W 17:19:27 10° N
GRACE-FO 2 4.5 17:12:49 12° S 17:16:11 87° W 17:19:53 10° N
NOSS 3-2 (C) 3.6 17:11:47 10° S 17:17:03 43° ESE 17:20:27 23° ENE
Cosmos 990 Rocket 3.9 17:12:30 10° NNW 17:17:40 64° ENE 17:19:35 37° SE
Cosmos 1674 Rocket 3.7 17:13:34 10° N 17:17:47 49° ENE 17:18:07 48° E
Ariane Rocket 2.9 17:15:23 23° SSE 17:18:36 75° ENE 17:23:43 10° NNW
SJ-6B 2.9 17:17:08 23° S 17:19:37 83° W 17:23:38 10° NNW
SL-08 R/B 4.5 17:13:58 10° S 17:20:24 79° E 17:26:54 10° NNE
Cosmos 2221 Rocket 3.6 17:17:00 10° NNW 17:21:27 82° W 17:24:38 19° S
BREEZE-M DEB (TANK) 4.5 17:04:05 10° W 17:22:03 70° SSW 17:24:33 35° SE
Cosmos 1763 Rocket 3.8 17:17:27 10° S 17:22:27 43° ESE 17:27:27 10° NE
Meteor 1-11 Rocket 4.2 17:18:13 10° SSW 17:23:49 61° WNW 17:29:21 10° N
USA 186 3.0 17:28:02 30° W 17:28:02 30° W 17:30:26 10° NNW
OBJECT-B 1.0 17:29:06 67° WSW 17:29:06 67° WSW 17:32:20 10° NNW
Cosmos 2360 Rocket 4.3 17:24:29 10° WSW 17:29:12 26° NW 17:33:56 10° N
Cosmos 1821 Rocket 3.8 17:25:38 10° S 17:31:47 70° E 17:37:54 10° NNE
Cosmos 1727 Rocket 4.2 17:25:53 10° NNW 17:32:02 69° W 17:38:12 10° S
Cosmos 1378 Rocket 3.6 17:27:55 10° N 17:32:15 59° ENE 17:32:15 59° ENE
Cosmos 1943 Rocket 3.2 17:28:37 10° NNW 17:33:32 29° NE 17:33:53 29° NE
SME Rocket 3.9 17:26:16 10° NNE 17:33:50 88° ESE 17:38:46 10° SSW
Cosmos 468 Rocket 4.0 17:28:48 10° S 17:33:58 56° ESE 17:39:08 10° NNE
Cosmos 2237 Rocket 2.1 17:30:01 10° SSW 17:35:39 65° ESE 17:41:19 10° NNE
Cosmos 1000 Rocket 4.4 17:30:34 10° N 17:36:55 80° E 17:40:37 27° SSE
MOS 1 4.3 17:32:59 20° SSE 17:37:00 81° WSW 17:42:43 10° NNW
Cosmos 2278 Rocket 2.5 17:31:35 10° NNW 17:37:12 66° WSW 17:40:17 27° S
SJ 16-02 2.4 17:35:32 10° NNW 17:39:44 43° WSW 17:42:16 21° SSW
Meteor 1-21 4.3 17:34:28 10° N 17:40:06 55° ENE 17:40:43 52° E
Cosmos 2239 Rocket 4.4 17:35:17 10° S 17:41:32 70° E 17:47:45 10° NNE
USA 81 3.9 17:36:16 10° S 17:41:32 87° E 17:46:50 10° N
SeaSat 1 2.9 17:39:07 10° NNE 17:43:59 61° NW 17:48:50 10° SW
Cosmos 1544 3.8 17:41:05 14° SSW 17:44:08 53° WNW 17:47:45 10° N
SPOT 3 Rocket 3.5 17:43:45 61° ESE 17:44:16 65° ENE 17:49:28 10° N
Cosmos 1934 Rocket 4.0 17:45:41 52° E 17:45:47 52° E 17:51:44 10° NNE
SL-4 R/B 4.3 17:45:35 10° WSW 17:46:53 12° SW 17:47:21 11° SW
USA 234 3.2 17:45:46 45° E 17:47:26 56° SE 17:53:50 10° SW
SPOT 1/Viking Rocket 4.3 17:53:18 37° NE 17:53:18 37° NE 17:57:09 10° N
Resurs 01 Rocket 1.9 17:54:07 58° N 17:54:07 58° N 17:57:46 10° N
Gbstr 26 Del rocket 3.5 17:50:25 10° WNW 17:55:16 70° SSW 17:55:46 65° S
Cosmos 2123 Rocket 3.9 17:49:06 10° N 17:55:21 70° ENE 17:56:18 60° SE
Cosmos 2333 Rocket 3.8 17:51:14 10° WSW 17:56:22 33° NW 18:01:34 10° NNE
USA 238 DEB 3.6 17:50:21 10° SW 17:56:57 86° NW 18:03:55 10° NE
USA 238 3.6 17:50:28 10° SW 17:57:04 86° NW 18:04:02 10° NE
Cosmos 1937 Rocket 3.3 17:54:26 10° NNW 17:59:38 86° ENE 17:59:38 86° ENE
Lacrosse 4 Rocket 3.9 18:00:30 10° W 18:04:04 23° NW 18:07:42 10° NNE
Resurs 1-3 4.4 18:08:04 47° WSW 18:08:25 48° W 18:12:42 10° NNW
Cosmos 2219 Rocket 4.0 18:08:09 10° WSW 18:12:58 29° NW 18:17:50 10° NNE
Terra 4.0 18:22:01 16° NNE 18:22:01 16° NNE 18:23:15 10° N
Cosmos 1980 4.1 18:14:54 10° SW 18:20:28 60° WNW 18:26:05 10° NNE
NOSS 3-2 (A) 4.1 18:20:23 10° WSW 18:26:02 53° NW 18:32:37 10° NE
Meteor 2-9 Rocket 4.5 18:28:44 60° NNW 18:28:44 60° NNW 18:33:19 10° N
CENTAUR R/B 2.9 18:31:32 10° SW 18:37:34 64° NW 18:44:49 10° NE
Cosmos 2369 Rocket 3.3 18:32:33 10° NNW 18:36:12 35° N 18:36:12 35° N
USA 281 4.2 19:07:16 36° NNE 19:07:16 36° NNE 19:11:44 10° NNW
NOSS 3-2 (C) 4.2 19:02:15 10° WSW 19:07:52 48° NW 19:08:11 48° NNW
Cosmos 1943 Rocket 3.6 19:12:06 10° NW 19:15:25 35° NW 19:15:25 35° NW
Cosmos 2237 Rocket 4.0 19:15:21 10° WSW 19:20:11 28° NW 19:25:02 10° NNE
USA 234 4.3 19:33:09 37° W 19:33:09 37° W 19:36:58 10° WSW
CENTAUR R/B 4.4 20:24:03 10° WNW 20:29:45 29° NNW 20:36:18 10° NE
Cosmos 2082 Rocket 4.4 23:18:56 22° NNE 23:18:56 22° NNE 23:20:48 10° NNE
CZ-2D R/B 4.3 23:42:45 10° N 23:44:11 19° N 23:44:11 19° N
